Location: Kuffner-Sternwarte
(48.2130°N, 16.2960°E)
Time: 02:57:18
(UTC+01:00)

COROT - Pass Details

Date: 12 August 2018
Orbit: 599 x 890 km, 90.0° (Epoch: 10 December)

Event Time Altitude Azimuth Distance (km) Brightness Sun altitude
Rises 04:54:20 0° 187° (S) 3,270 8.9 -8.2°
Reaches altitude 10° 04:56:48 10° 191° (SSW) 2,300 8.1 -7.8°
Maximum altitude 05:01:49 58° 271° (W) 843 6.0 -7.1°
Drops below altitude 10° 05:06:28 10° 351° (N) 2,133 8.6 -6.5°
Sets 05:08:41 0° 355° (N) 3,011 9.5 -6.2°
